Regional Weather Roundup
Issued by NWS

Home | Current Version | Previous Version | Graphics & Text | Print | Product List | Glossary On
Versions: 1 2 3 4 5 6 7 8 9 10 11 12 13 14 15 16 17 18 19 20 21 22 23 24 25 26 27 28 29 30 31 32 33 34 35 36 37 38 39 40 41 42 43 44 45 46 47 48 49 50
000
ASUS43 KMPX 221601
RWRMN
WEATHER ROUNDUP FOR MINNESOTA
NATIONAL WEATHER SERVICE TWIN CITIES/CHANHASSEN MN
1100 AM CDT FRI SEP 22 2017


NOTE: "FAIR" INDICATES FEW OR NO CLOUDS BELOW 12,000 FEET WITH NO
SIGNIFICANT WEATHER AND/OR OBSTRUCTIONS TO VISIBILITY. N/A MEANS
CURRENT SKY AND/OR WEATHER CONDITIONS ARE NOT AVAILABLE.

MNZ060>063-068>070-221700-
   Twin Cities Metro

CITY           SKY/WX    TMP DP  RH WIND       PRES   REMARKS
TWIN CITIES    CLOUDY    81  72  74 S9        29.85S
ST PAUL        PTSUNNY   81  73  76 S13       29.85S
CRYSTAL        MOSUNNY   81  69  67 S9        29.84F
BLAINE         PTSUNNY   81  72  74 SE8       29.86S
LAKEVILLE      CLOUDY    82  70  65 S12G20    29.84F
EDEN PRAIRIE   CLOUDY    82  72  71 S9        29.84R
SOUTH ST PAUL  CLOUDY    81  70  68 S7        29.85S
LAKE ELMO      FAIR      81  72  74 S9        29.88F
$$
MNZ001>005-007-008-013>017-022>024-027-028-221700-
   Northwest Minnesota

CITY           SKY/WX    TMP DP  RH WIND       PRES   REMARKS
BEMIDJI        CLOUDY    74  65  73 SE12      29.80F
HALLOCK          N/A     66  54  63 NE12      29.83R
ROSEAU         SUNNY     63  55  77 NE10      29.85R
WARROAD        SUNNY     64  57  77 E8        29.86S
CROOKSTON      SUNNY     66  57  72 E12       29.79F
FOSSTON        CLOUDY    68  66  94 NE5       29.80S
DETROIT LAKES  SUNNY     73  64  73 SE14      29.77F
MOORHEAD       MOSUNNY   75  66  73 NE7       29.71F
PARK RAPIDS    MOSUNNY   74  67  78 SE9       29.80S
MAHNOMEN       FAIR      76  64  65 SE6       29.76F
$$
MNZ006-009>011-018-025>026-221700-
   North Central Minnesota

CITY           SKY/WX    TMP DP  RH WIND       PRES   REMARKS
BAUDETTE       CLOUDY    66  62  87 N5        29.86R
FLAG ISLAND    PTSUNNY   63  54  72 N9        29.86R
INTL FALLS     CLOUDY    68  62  81 E5        29.85S
WASKISH        CLOUDY    68  64  88 NE6       29.83F
BIG FORK       MOSUNNY   75  63  64 CALM      29.85F
LONGVILLE      MOSUNNY   73  66  78 S12G18    29.81F
GRAND RAPIDS   CLOUDY    71  63  75 S7        29.85S
CRANE LAKE     CLOUDY    66  63  88 CALM      29.87R
ORR            CLOUDY    72  63  73 S5        29.85R
COOK           CLOUDY    70  63  78 NW6       29.86F
WALKER         FAIR      71  65  81 CALM      29.81S
$$
MNZ012-019>021-037-221700-
   Northeast Minnesota

CITY           SKY/WX    TMP DP  RH WIND       PRES   REMARKS
DULUTH         CLOUDY    67  64  90 SE12      29.83F
ELY            CLOUDY    68  61  77 CALM      29.89R
HIBBING        CLOUDY    71  61  70 CALM      29.83F
EVELETH        CLOUDY    72  61  67 CALM      29.84F
DULUTH HARBOR  CLOUDY    64  63  94 NW7       29.82F
GRAND MARAIS     N/A     64  63  96 N3        29.78F
$$
MNZ029>031-032-039>041-046>048-054>057-064-221700-
   West Central Minnesota

CITY           SKY/WX    TMP DP  RH WIND       PRES   REMARKS
FERGUS FALLS   SUNNY     75  68  78 SE12      29.73S
WHEATON        SUNNY     79  72  78 E15       29.72F
MORRIS         SUNNY     81  73  78 SE15      29.74S
ALEXANDRIA     PTSUNNY   77  72  84 SE15      29.79S
ELBOW LAKE     CLOUDY    76  72  88 SE15G21   29.75S FOG
WADENA         MOSUNNY   73  72  94 SE10      29.78F
GLENWOOD       SUNNY     75  72  88 SE14      29.80S
APPLETON       MOSUNNY   81  72  74 SE14      29.73F
BENSON         PTSUNNY   81  72  74 S12       29.77F
ORTONVILLE     MOSUNNY   79  72  78 NE14      29.72F
MADISON        MOSUNNY   82  73  74 SE9       29.73S
WILLMAR        PTSUNNY   79  73  83 E12G18    29.80S
$$
MNZ033>034-036-042>043-049>051-058-059-221700-
   Central Minnesota

CITY           SKY/WX    TMP DP  RH WIND       PRES   REMARKS
ST CLOUD       CLOUDY    72  72 100 E7        29.82F THUNDER
SAUK CENTRE    CLOUDY    74  71  89 SE9       29.81R
PAYNESVILLE    CLOUDY    76  72  87 E8        29.82S
AITKIN         CLOUDY    68  64  88 E7        29.81F
PINE RIVER     PTSUNNY   68  63  83 SE9       29.85S
BRAINERD       MOSUNNY   72  68  87 SE8       29.82F
STAPLES        CLOUDY    72  70  94 E3        29.80S
LITTLE FALLS   MOSUNNY   75  64  69 SE9       29.80F
LITCHFIELD     CLOUDY    77  75  94 SE9       29.82F
BUFFALO        CLOUDY    77  71  83 NE7       29.85S
MAPLE LAKE     CLOUDY    74  73  95 E3        29.85F FOG
HUTCHINSON     CLOUDY    82  74  77 SE7       29.83S
$$
MNZ037-044-045-052-053-221700-
   East Central Minnesota

CITY           SKY/WX    TMP DP  RH WIND       PRES   REMARKS
PRINCETON      CLOUDY    75  73  94 SE8       29.85S
MORA           CLOUDY    70  70 100 SE6       29.87S
RUSH CITY      CLOUDY    73  71  93 CALM      29.87S
MOOSE LAKE     CLOUDY    66  63  88 S3        29.86R
HINCKLEY       PTSUNNY   70  68  94 E3        29.88R
CLOQUET        CLOUDY    66  63  88 SE8       29.84F
MCGREGOR       PTSUNNY   68  64  88 SE5       29.84S
$$
MNZ071>073-080-081-089-090-097-098-221700-
   Southwest Minnesota

CITY           SKY/WX    TMP DP  RH WIND       PRES   REMARKS
MONTEVIDEO     CLOUDY    84  73  70 S9        29.75S HX  91
GRANITE FALLS  CLOUDY    84  73  70 S10       29.77S HX  91
CANBY          SUNNY     82  71  69 S9G17     29.74S
MARSHALL       MOSUNNY   84  72  67 S24G30    29.73R
REDWOOD FALLS  LGT RAIN  83  71  67 S18G24    29.78R
OLIVIA         SUNNY     81  72  74 S10       29.78F
PIPESTONE      SUNNY     82  70  65 S17G23    29.77S
WORTHINGTON    SUNNY     82  70  66 S21G28    29.81S
JACKSON        SUNNY     82  68  61 S17G26    29.84S
TRACY          SUNNY     83  72  70 S16G25    29.76F
SLAYTON        SUNNY     81  69  67 S16G28    29.80S
$$
MNZ065>067-074>077-082>085-091>093-221700-
   South Central Minnesota

CITY           SKY/WX    TMP DP  RH WIND       PRES   REMARKS
MANKATO        CLOUDY    81  71  71 S13       29.84S
NEW ULM        SUNNY     82  70  65 S18G26    29.80F
ST JAMES       CLOUDY    82  70  65 S17G25    29.82S
FAIRMONT       MOSUNNY   83  71  67 S22G28    29.84S
GLENCOE        MOSUNNY   83  75  75 S10G17    29.82F HX  91
FARIBAULT      SUNNY     82  72  69 S13G21    29.86F
OWATONNA       SUNNY     84  72  65 S18G24    29.88R
WASECA         CLOUDY    82  70  65 S20       29.88S
ALBERT LEA     SUNNY     84  72  65 S15       29.90S
$$
MNZ078>079-086>088-094>096-221700-
   Southeast Minnesota

CITY           SKY/WX    TMP DP  RH WIND       PRES   REMARKS
ROCHESTER      SUNNY     83  70  64 S21G26    29.92F
RED WING       MOSUNNY   82  70  65 SE5       29.86F
STANTON        MOSUNNY   84  70  62 S16G24    29.84S
DODGE CENTER   SUNNY     84  68  58 S18G26    29.91S
WINONA         SUNNY     86  70  58 S5G17     29.92S HX  90
AUSTIN         SUNNY     81  70  69 S14G20    29.92S
PRESTON        SUNNY     82  68  63 S15G23    29.95F
$$
ABBREVIATIONS USED IN REMARKS
   TC - TEMPERATURES IN CELSIUS
  WCI - WIND CHILL INDEX
   HX - HEAT INDEX
  VSB - VISIBILITY
$$




USA.gov is the U.S. government's official web portal to all federal, state and local government web resources and services.